Norwood, MA

6:59 PM EST on January 16, 2018 (GMT -0500)
Norwood Memorial

Weather History for KOWD - May, 2013

Change the Weather History Date:

Saturday, May 18, 2013

  Actual Average Record
Temperature  
Mean Temperature 56 °F -  
Max Temperature 72 °F 65 °F 96 °F (2017)
Min Temperature 39 °F 43 °F 26 °F (2003)
Degree Days  
Heating Degree Days 10    
Growing Degree Days 6 (Base 50)    
Moisture  
Dew Point 42 °F    
Average Humidity 79    
Maximum Humidity 100    
Minimum Humidity 27    
Precipitation  
Precipitation 0.00 in - - ()
Sea Level Pressure  
Sea Level Pressure 30.25 in    
Wind  
Wind Speed 1 mph (South)    
Max Wind Speed 13 mph    
Max Gust Speed -    
Visibility 6 miles    
Events Fog    
Averages and records for this station are not official NWS values.
T = Trace of Precipitation, MM = Missing Value Source: NWS Daily Summary

Daily Weather History Graph

Daily Weather History Graph

Search for Another Location

Airport or City:

Trip Planner

Search our weather history database for the weather conditions in past years. The results will help you decide how hot, cold, wet, or windy it might be!

Date:

Astronomy

May. 18, 2013 Rise Set
Actual Time 5:20 AM EDT 8:02 PM EDT
Civil Twilight 4:48 AM EDT 8:34 PM EDT
Nautical Twilight 4:07 AM EDT 9:15 PM EDT
Astronomical Twilight 3:21 AM EDT 10:02 PM EDT
Moon 12:55 PM EDT (5/18) 1:19 AM EDT (5/18)
Length of Visible Light 15h 46m
Length of Day
14h 41m
First Quarter, 55% of the Moon is Illuminated
May 18
First Quarter
May 25
Full
May 31
Last Quarter
Jun 8
New
Jun 16
First Quarter

Hourly Weather History & Observations

Time (EDT) Temp. Dew Point Humidity Pressure Visibility Wind Dir Wind Speed Gust Speed Precip Events Conditions
12:53 AM 44.1 °F 44.1 °F 100% 30.23 in 10.0 mi Calm Calm - N/A   Clear
1:53 AM 43.0 °F 43.0 °F 100% 30.23 in 6.0 mi Calm Calm - N/A   Clear
1:59 AM 41.0 °F 41.0 °F 100% 30.23 in 0.8 mi Calm Calm - N/A   Clear
2:15 AM 42.8 °F 42.8 °F 100% 30.22 in 2.0 mi Calm Calm - N/A   Clear
2:45 AM 41.0 °F 41.0 °F 100% 30.23 in 1.5 mi Calm Calm - N/A   Clear
2:51 AM 41.0 °F 41.0 °F 100% 30.23 in 4.0 mi Calm Calm - N/A   Clear
2:53 AM 41.0 °F 41.0 °F 100% 30.23 in 5.0 mi Calm Calm - N/A   Clear
3:01 AM 39.2 °F 39.2 °F 100% 30.23 in 1.8 mi Calm Calm - N/A   Clear
3:24 AM 39.2 °F 39.2 °F 100% 30.23 in 4.0 mi Calm Calm - N/A   Clear
3:38 AM 42.8 °F 41.0 °F 93% 30.23 in 1.8 mi Calm Calm - N/A   Clear
3:46 AM 41.0 °F 41.0 °F 100% 30.23 in 0.8 mi Calm Calm - N/A   Mist
3:49 AM 41.0 °F 41.0 °F 100% 30.23 in 1.2 mi Calm Calm - N/A   Partly Cloudy
3:53 AM 41.0 °F 41.0 °F 100% 30.24 in 2.0 mi Calm Calm - N/A   Partly Cloudy
4:00 AM 41.0 °F 39.2 °F 93% 30.24 in 10.0 mi Calm Calm - N/A   Clear
4:27 AM 39.2 °F 39.2 °F 100% 30.24 in 1.8 mi Calm Calm - N/A   Clear
4:36 AM 39.2 °F 39.2 °F 100% 30.24 in 0.2 mi Calm Calm - N/A Fog Fog
4:45 AM 39.2 °F 39.2 °F 100% 30.25 in 1.2 mi Calm Calm - N/A   Partly Cloudy
4:53 AM 39.9 °F 39.9 °F 100% 30.25 in 10.0 mi Calm Calm - N/A   Partly Cloudy
5:30 AM 39.2 °F 39.2 °F 100% 30.26 in 1.8 mi Calm Calm - N/A   Clear
5:41 AM 39.2 °F 39.2 °F 100% 30.26 in 0.2 mi Calm Calm - N/A Fog Fog
5:53 AM 39.9 °F 39.9 °F 100% 30.27 in 1.5 mi Calm Calm - N/A   Clear
5:57 AM 39.2 °F 39.2 °F 100% 30.27 in 3.0 mi Calm Calm - N/A   Clear
6:53 AM 48.0 °F 48.0 °F 100% 30.28 in 10.0 mi Calm Calm - N/A   Clear
7:53 AM 55.9 °F 48.9 °F 77% 30.30 in 10.0 mi Calm Calm - N/A   Clear
8:53 AM 63.0 °F 43.0 °F 48% 30.30 in 10.0 mi Calm Calm - N/A   Clear
9:53 AM 66.9 °F 41.0 °F 39% 30.30 in 10.0 mi Calm Calm - N/A   Clear
10:53 AM 69.1 °F 37.0 °F 31% 30.30 in 10.0 mi NNW 6.9 mph - N/A   Mostly Cloudy
11:53 AM 68.0 °F 36.0 °F 31% 30.29 in 10.0 mi SSW 4.6 mph - N/A   Overcast
12:53 PM 71.1 °F 36.0 °F 28% 30.27 in 10.0 mi Calm Calm - N/A   Mostly Cloudy
1:53 PM 72.0 °F 36.0 °F 27% 30.26 in 10.0 mi Variable 5.8 mph - N/A   Scattered Clouds
3:53 PM 68.0 °F 41.0 °F 37% 30.24 in 10.0 mi ESE 12.7 mph - N/A   Overcast
4:53 PM 69.1 °F 46.0 °F 44% 30.25 in 10.0 mi SSE 9.2 mph - N/A   Overcast
5:53 PM 66.9 °F 43.0 °F 42% 30.23 in 10.0 mi South 8.1 mph - N/A   Partly Cloudy
6:53 PM 66.0 °F 46.0 °F 48% 30.24 in 10.0 mi South 8.1 mph - N/A   Partly Cloudy
7:53 PM 64.0 °F 46.0 °F 52% 30.26 in 10.0 mi South 5.8 mph - N/A   Clear
8:53 PM 62.1 °F 46.9 °F 58% 30.28 in 10.0 mi SSW 8.1 mph - N/A   Clear
9:53 PM 57.0 °F 48.0 °F 72% 30.29 in 10.0 mi South 5.8 mph - N/A   Clear
10:53 PM 57.0 °F 46.9 °F 69% 30.29 in 10.0 mi South 3.5 mph - N/A   Clear